SVR9583 UUDD-UWUU

Flight info

Callsign SVR9583
Flight time N/A
Altitude 35000
Route K0824F350 KOGOM4Q KOGOM L94 EKPIR M864 INKEB L94 UNORO T788 NAMUD L994 DILUP DILUP3Y
Aircraft A321/M-SDE3FGHIRWY/LB1

Departure

Time 2026-05-04 13:07
Airport Domodedovo International Airport (UUDD)

Arrival

Time N/A
Airport Ufa International Airport (UWUU)
Time Latitude Longitude Altitude Speed Heading
2026-05-04 12:44 55.41336 37.88719 579 ft 0 kts 103°
2026-05-04 13:00 55.41333 37.88746 582 ft 6 kts 103°
2026-05-04 13:00 55.41324 37.88812 578 ft 5 kts 103°
2026-05-04 13:00 55.41312 37.88864 578 ft 5 kts 126°
2026-05-04 13:01 55.41287 37.88902 578 ft 5 kts 148°
2026-05-04 13:01 55.41257 37.88932 578 ft 5 kts 151°
2026-05-04 13:01 55.41224 37.88932 577 ft 4 kts 210°
2026-05-04 13:01 55.41201 37.88864 580 ft 12 kts 241°
2026-05-04 13:02 55.41135 37.88762 582 ft 13 kts 176°
2026-05-04 13:02 55.41062 37.88834 579 ft 12 kts 146°
2026-05-04 13:02 55.40991 37.88920 581 ft 15 kts 146°
2026-05-04 13:02 55.40880 37.89056 575 ft 24 kts 145°
2026-05-04 13:03 55.40735 37.89231 571 ft 26 kts 146°
2026-05-04 13:03 55.40588 37.89407 569 ft 26 kts 146°
2026-05-04 13:03 55.40438 37.89585 570 ft 26 kts 146°
2026-05-04 13:03 55.40288 37.89764 562 ft 26 kts 145°
2026-05-04 13:04 55.40139 37.89946 561 ft 26 kts 146°
2026-05-04 13:04 55.39988 37.90126 560 ft 26 kts 145°
2026-05-04 13:04 55.39837 37.90310 549 ft 26 kts 145°
2026-05-04 13:04 55.39692 37.90486 546 ft 15 kts 148°
2026-05-04 13:05 55.39604 37.90528 544 ft 13 kts 207°
2026-05-04 13:05 55.39573 37.90471 544 ft 6 kts 233°
2026-05-04 13:05 55.39550 37.90412 543 ft 9 kts 237°
2026-05-04 13:05 55.39545 37.90306 542 ft 9 kts 304°
2026-05-04 13:06 55.39588 37.90246 543 ft 6 kts 325°
2026-05-04 13:06 55.39634 37.90190 548 ft 16 kts 325°
2026-05-04 13:06 55.39914 37.89850 551 ft 79 kts 324°
2026-05-04 13:06 55.40517 37.89123 568 ft 129 kts 326°
2026-05-04 13:07 55.41368 37.88100 588 ft 166 kts 325°
2026-05-04 13:07 55.42332 37.86943 1078 ft 165 kts 321°
2026-05-04 13:07 55.43135 37.85493 1619 ft 169 kts 311°
2026-05-04 13:07 55.43919 37.83881 2039 ft 178 kts 309°
2026-05-04 13:08 55.44729 37.82158 2396 ft 188 kts 309°
2026-05-04 13:08 55.45577 37.80347 2698 ft 196 kts 307°
2026-05-04 13:08 55.46507 37.78441 2955 ft 215 kts 311°
2026-05-04 13:08 55.47843 37.77056 3153 ft 241 kts 344°
2026-05-04 13:09 55.49547 37.76353 3516 ft 255 kts 341°
2026-05-04 13:09 55.51226 37.75379 4296 ft 253 kts 338°
2026-05-04 13:09 55.52887 37.74417 5131 ft 251 kts 350°
2026-05-04 13:09 55.54676 37.74826 5542 ft 275 kts 22°
2026-05-04 13:10 55.56364 37.76530 6094 ft 284 kts 32°
2026-05-04 13:10 55.57993 37.78569 6752 ft 288 kts 34°
2026-05-04 13:10 55.59623 37.80651 7438 ft 291 kts 33°
2026-05-04 13:10 55.61298 37.82689 8108 ft 294 kts 31°
2026-05-04 13:11 55.62895 37.84966 8753 ft 299 kts 47°
2026-05-04 13:11 55.63964 37.88132 9364 ft 304 kts 70°
2026-05-04 13:11 55.64291 37.91822 9932 ft 308 kts 94°
2026-05-04 13:11 55.63922 37.95569 10523 ft 310 kts 103°
2026-05-04 13:12 55.63450 37.99309 11129 ft 313 kts 103°
2026-05-04 13:12 55.62961 38.03076 11694 ft 316 kts 103°
2026-05-04 13:12 55.62462 38.06888 12284 ft 319 kts 102°
2026-05-04 13:12 55.61963 38.10721 12869 ft 321 kts 102°
2026-05-04 13:13 55.61460 38.14585 13426 ft 324 kts 102°
2026-05-04 13:13 55.60949 38.18561 13628 ft 340 kts 102°
2026-05-04 13:13 55.60422 38.22699 13967 ft 348 kts 102°
2026-05-04 13:13 55.59887 38.26902 14461 ft 352 kts 102°
2026-05-04 13:14 55.59345 38.31152 14995 ft 355 kts 102°
2026-05-04 13:14 55.58798 38.35418 15497 ft 358 kts 102°
2026-05-04 13:14 55.58322 38.39756 15977 ft 360 kts 94°
2026-05-04 13:14 55.58327 38.44175 16479 ft 361 kts 81°
2026-05-04 13:15 55.58867 38.48494 16953 ft 360 kts 68°
2026-05-04 13:15 55.59918 38.52502 17424 ft 360 kts 57°
2026-05-04 13:15 55.61199 38.56321 17891 ft 362 kts 57°
2026-05-04 13:15 55.62484 38.60177 18355 ft 365 kts 57°
2026-05-04 13:16 55.63772 38.64060 18831 ft 367 kts 57°
2026-05-04 13:16 55.65067 38.67976 19272 ft 369 kts 57°
2026-05-04 13:16 55.66363 38.71906 19712 ft 371 kts 57°
2026-05-04 13:16 55.67669 38.75871 20139 ft 373 kts 57°
2026-05-04 13:17 55.68979 38.79857 20577 ft 376 kts 57°
2026-05-04 13:17 55.69939 38.82780 20865 ft 377 kts 57°
2026-05-04 13:17 55.71133 38.86425 21233 ft 379 kts 57°
2026-05-04 13:17 55.72479 38.90538 21631 ft 381 kts 57°
2026-05-04 13:18 55.73985 38.94386 22012 ft 380 kts 46°
2026-05-04 13:18 55.75780 38.97824 22384 ft 380 kts 43°
2026-05-04 13:18 55.77609 39.01241 22743 ft 382 kts 43°
2026-05-04 13:18 55.79439 39.04671 23102 ft 384 kts 43°
2026-05-04 13:19 55.81278 39.08136 23438 ft 386 kts 44°
2026-05-04 13:19 55.82497 39.10439 23644 ft 387 kts 43°
2026-05-04 13:19 55.84840 39.15336 24049 ft 392 kts 53°
2026-05-04 13:19 55.86205 39.19598 24201 ft 401 kts 60°
2026-05-04 13:20 55.87452 39.24085 24334 ft 407 kts 60°
2026-05-04 13:20 55.88716 39.28632 24462 ft 413 kts 60°
2026-05-04 13:20 55.89986 39.33199 24588 ft 419 kts 60°
2026-05-04 13:20 55.90863 39.36359 24674 ft 424 kts 60°
2026-05-04 13:21 55.92611 39.42662 24843 ft 432 kts 60°
2026-05-04 13:21 55.93948 39.47491 24970 ft 438 kts 60°
2026-05-04 13:21 55.95303 39.52394 25152 ft 442 kts 60°
2026-05-04 13:21 55.96661 39.57323 25405 ft 444 kts 60°
2026-05-04 13:22 55.98024 39.62290 25677 ft 446 kts 60°
2026-05-04 13:22 55.98946 39.65657 25861 ft 447 kts 60°
2026-05-04 13:22 56.00311 39.70564 26131 ft 448 kts 59°
2026-05-04 13:22 56.01637 39.75698 26390 ft 452 kts 66°
2026-05-04 13:23 56.02560 39.81099 26654 ft 457 kts 75°
2026-05-04 13:23 56.03000 39.86748 26919 ft 462 kts 84°
2026-05-04 13:23 56.03097 39.92511 27171 ft 465 kts 85°
2026-05-04 13:23 56.03173 39.98296 27433 ft 466 kts 85°
2026-05-04 13:24 56.03239 40.04013 27687 ft 467 kts 86°
2026-05-04 13:24 56.03307 40.09829 27934 ft 468 kts 85°
2026-05-04 13:24 56.03378 40.15732 28152 ft 469 kts 85°
2026-05-04 13:25 56.03519 40.27344 28576 ft 472 kts 85°
2026-05-04 13:25 56.03589 40.33292 28761 ft 473 kts 85°
2026-05-04 13:25 56.03653 40.39100 28943 ft 474 kts 85°
2026-05-04 13:25 56.03715 40.44991 29115 ft 475 kts 85°
2026-05-04 13:26 56.03774 40.50905 29290 ft 475 kts 85°
2026-05-04 13:26 56.03829 40.56888 29520 ft 475 kts 85°
2026-05-04 13:26 56.03879 40.62797 29745 ft 474 kts 85°
2026-05-04 13:26 56.03923 40.68613 29962 ft 474 kts 85°
2026-05-04 13:27 56.03969 40.74496 30184 ft 473 kts 85°
2026-05-04 13:27 56.04015 40.80375 30399 ft 473 kts 85°
2026-05-04 13:27 56.04060 40.86257 30606 ft 473 kts 85°
2026-05-04 13:27 56.04099 40.92134 30817 ft 473 kts 85°
2026-05-04 13:28 56.04133 40.98013 31008 ft 473 kts 85°
2026-05-04 13:28 56.04165 41.03888 31233 ft 473 kts 85°
2026-05-04 13:28 56.04193 41.09766 31447 ft 472 kts 85°
2026-05-04 13:28 56.04217 41.15636 31670 ft 472 kts 85°
2026-05-04 13:29 56.04239 41.21505 31888 ft 471 kts 85°
2026-05-04 13:29 56.04261 41.27362 32091 ft 471 kts 85°
2026-05-04 13:29 56.04280 41.33214 32298 ft 470 kts 85°
2026-05-04 13:29 56.04298 41.39059 32494 ft 470 kts 85°
2026-05-04 13:30 56.04309 41.44910 32687 ft 470 kts 85°
2026-05-04 13:30 56.04318 41.50743 32867 ft 470 kts 85°
2026-05-04 13:30 56.04327 41.56590 33068 ft 470 kts 85°
2026-05-04 13:30 56.04330 41.62429 33276 ft 469 kts 85°
2026-05-04 13:31 56.04328 41.68256 33469 ft 468 kts 85°
2026-05-04 13:31 56.04324 41.74071 33655 ft 468 kts 85°
2026-05-04 13:31 56.04319 41.79894 33821 ft 468 kts 85°
2026-05-04 13:31 56.04314 41.85708 34002 ft 468 kts 85°
2026-05-04 13:32 56.04310 41.91516 34183 ft 467 kts 85°
2026-05-04 13:32 56.04301 41.97320 34351 ft 467 kts 85°
2026-05-04 13:32 56.04284 42.03123 34502 ft 467 kts 85°
2026-05-04 13:32 56.04264 42.08929 34663 ft 467 kts 85°
2026-05-04 13:33 56.04241 42.14736 34814 ft 467 kts 86°
2026-05-04 13:33 56.04216 42.20535 34870 ft 466 kts 86°
2026-05-04 13:33 56.04171 42.32091 34869 ft 464 kts 86°
2026-05-04 13:34 56.04101 42.43645 34870 ft 465 kts 86°
2026-05-04 13:34 56.04025 42.55226 34872 ft 466 kts 86°
2026-05-04 13:35 56.03823 42.72645 34866 ft 468 kts 87°
2026-05-04 13:36 56.03646 42.84275 34864 ft 468 kts 87°
2026-05-04 13:36 56.03480 42.95901 34860 ft 468 kts 87°
2026-05-04 13:37 56.03309 43.07550 34859 ft 469 kts 87°
2026-05-04 13:37 56.03120 43.19204 34861 ft 469 kts 88°
2026-05-04 13:38 56.02914 43.30867 34863 ft 469 kts 87°
2026-05-04 13:38 56.03455 43.42302 34864 ft 464 kts 78°
2026-05-04 13:39 56.04255 43.53736 34865 ft 463 kts 79°
2026-05-04 13:39 56.05018 43.65173 34864 ft 463 kts 79°
2026-05-04 13:40 56.05757 43.76623 34863 ft 464 kts 79°
2026-05-04 13:40 56.06500 43.88095 34868 ft 464 kts 79°
2026-05-04 13:41 56.07243 43.99569 34868 ft 464 kts 79°
2026-05-04 13:41 56.07983 44.11045 34871 ft 464 kts 79°
2026-05-04 13:42 56.09043 44.28273 34874 ft 464 kts 80°
2026-05-04 13:42 56.09745 44.39752 34867 ft 464 kts 79°
2026-05-04 13:43 56.10442 44.51226 34861 ft 464 kts 80°
2026-05-04 13:43 56.11117 44.62723 34857 ft 464 kts 81°
2026-05-04 13:44 56.11095 44.74360 34857 ft 469 kts 89°
2026-05-04 13:44 56.10864 44.86043 34856 ft 469 kts 89°
2026-05-04 13:45 56.10633 44.97740 34861 ft 470 kts 89°
2026-05-04 13:45 56.10373 45.09451 34868 ft 471 kts 89°
2026-05-04 13:46 56.10079 45.21176 34880 ft 472 kts 90°
2026-05-04 13:46 56.09794 45.32922 34883 ft 472 kts 89°
2026-05-04 13:47 56.09513 45.44655 34888 ft 471 kts 90°
2026-05-04 13:47 56.09223 45.56391 34884 ft 472 kts 90°
2026-05-04 13:48 56.08907 45.68123 34888 ft 472 kts 90°
2026-05-04 13:48 56.08574 45.79862 34890 ft 472 kts 90°
2026-05-04 13:49 56.08236 45.91583 34891 ft 471 kts 90°
2026-05-04 13:49 56.07893 46.03297 34894 ft 471 kts 90°
2026-05-04 13:50 56.07544 46.14939 34892 ft 471 kts 90°
2026-05-04 13:50 56.07170 46.26659 34890 ft 472 kts 91°
2026-05-04 13:51 56.06777 46.38370 34888 ft 471 kts 91°
2026-05-04 13:51 56.06248 46.50130 34881 ft 473 kts 98°
2026-05-04 13:52 56.04329 46.61313 34873 ft 475 kts 110°
2026-05-04 13:52 56.03144 46.66823 34873 ft 475 kts 110°
2026-05-04 13:53 56.00778 46.77851 34870 ft 475 kts 110°
2026-05-04 13:53 55.98419 46.88865 34877 ft 474 kts 110°
2026-05-04 13:54 55.94838 47.05312 34886 ft 473 kts 110°
2026-05-04 13:55 55.91247 47.21679 34888 ft 472 kts 111°
2026-05-04 13:55 55.87663 47.37982 34885 ft 470 kts 111°
2026-05-04 13:56 55.85671 47.46984 34884 ft 470 kts 111°
2026-05-04 13:57 55.81657 47.65033 34879 ft 470 kts 111°
2026-05-04 13:58 55.76800 47.86577 34874 ft 470 kts 112°
2026-05-04 13:58 55.73142 48.02702 34882 ft 470 kts 112°
2026-05-04 13:59 55.70689 48.13434 34885 ft 469 kts 112°
2026-05-04 14:00 55.67404 48.27700 34889 ft 469 kts 112°
2026-05-04 14:00 55.63277 48.45548 34894 ft 469 kts 112°
2026-05-04 14:01 55.60793 48.56204 34898 ft 468 kts 112°
2026-05-04 14:02 55.57072 48.72096 34902 ft 468 kts 112°
2026-05-04 14:02 55.54574 48.82704 34906 ft 467 kts 112°
2026-05-04 14:03 55.52066 48.93282 34903 ft 467 kts 112°
2026-05-04 14:03 55.49553 49.03835 34899 ft 467 kts 112°
2026-05-04 14:04 55.45763 49.19643 34903 ft 466 kts 113°
2026-05-04 14:04 55.43231 49.30160 34902 ft 466 kts 113°
2026-05-04 14:05 55.39423 49.45906 34899 ft 466 kts 113°
2026-05-04 14:06 55.36869 49.56372 34897 ft 466 kts 113°
2026-05-04 14:06 55.34301 49.66818 34894 ft 466 kts 113°
2026-05-04 14:07 55.31733 49.77251 34898 ft 465 kts 113°
2026-05-04 14:07 55.29155 49.87679 34898 ft 465 kts 114°
2026-05-04 14:08 55.27011 49.96321 34898 ft 465 kts 114°
2026-05-04 14:08 55.24422 50.06715 34897 ft 465 kts 114°
2026-05-04 14:09 55.20517 50.22262 34899 ft 465 kts 114°
2026-05-04 14:10 55.16594 50.37758 34903 ft 464 kts 114°
2026-05-04 14:10 55.13974 50.48071 34903 ft 464 kts 114°
2026-05-04 14:11 55.11353 50.58360 34905 ft 463 kts 114°
2026-05-04 14:11 55.07403 50.73755 34902 ft 463 kts 114°
2026-05-04 14:12 55.04781 50.84014 34900 ft 463 kts 111°
2026-05-04 14:13 55.01615 50.99915 34897 ft 463 kts 109°
2026-05-04 14:13 54.99857 51.08717 34897 ft 463 kts 109°